Location: Brooks Farm Pond
(32.9618°N, 86.0700°W)
Time: 23:26:33
(UTC+00:00)

Cosmos 1656 - Pass Details

Date: 29 October 2020
Orbit: 796 x 851 km, 71.1° (Epoch: 28 November)

Event Time Altitude Azimuth Distance (km) Brightness Sun altitude
Rises 23:14:54 0° 200° (SSW) 3,318 7.3 -4.8°
Reaches altitude 10° 23:17:17 10° 200° (SSW) 2,398 6.6 -5.3°
Maximum altitude 23:22:47 86° 289° (WNW) 832 3.8 -6.4°
Drops below altitude 10° 23:28:25 10° 19° (NNE) 2,449 5.8 -7.6°
Sets 23:30:53 0° 20° (NNE) 3,394 6.5 -8.1°
